Tracking 25710 objects as of 5-Jul-2022
HD Live streaming from Space Station
objects crossing your sky now

FENGYUN 1C DEB

Track FENGYUN 1C DEB now!
10-day predictions


NORAD ID: 30297
Int'l Code: 1999-025ZJ
Perigee: 572.8 km
Apogee: 1,327.6 km
Inclination: 98.7 °
Period: 103.9 minutes
Semi major axis: 7321 km
RCS: 0.0363 m2 (small)
Launch date: May 10, 1999
Source: People's Republic of China (PRC)
Launch site: Taiyaun Space Center, China (TSC)

Note: This is SATELLITE DEBRIS
aabbcc
Your satellite tracking list
Your tracking list is empty




NASA's NSSDC Master Catalog

Two Line Element Set (TLE):
1 30297U 99025ZJ  22185.92798453  .00005770  00000-0  17577-2 0  9999
2 30297  98.6987 167.1116 0515471  36.0603  16.5012 13.85890067775511
Source of the keplerian elements: AFSPC